EW4164 Weather Reports


time (UTC)temp
C
wind
direction
speed
KPH
gust
KPH
rain 1hr
cm
rain 24hr
cm
rain mn
cm
humidity
%
barometer
mb
20260504120222 20 209 3.2 12.9 0.00 0.00 0.00 55 1013.9
20260504100214 18 262 4.8 16.1 0.00 0.00 0.00 60 1014.7
20260504100112 18 183 3.2 12.9 0.00 0.00 0.00 61 1014.7
20260504090105 18 35 1.6 8.0 0.00 0.00 0.00 60 1014.7
20260504081546 17 96 1.6 8.0 0.00 0.00 0.00 63 1014.6
20260504080214 16 101 3.2 8.0 0.00 0.00 0.00 68 1014.8
20260504070216 15 150 3.2 4.8 0.00 0.00 0.00 68 1014.6
20260504060232 12 5 1.6 3.2 0.00 0.00 0.00 76 1014.5
20260504050221 10 219 1.6 3.2 0.00 0.00 0.00 81 1014.5
20260504050014 10 208 1.6 4.8 0.00 0.00 0.00 81 1014.5
20260504045226 10 218 0.0 1.6 0.00 0.00 0.00 82 1014.5
20260504044556 9 196 0.0 1.6 0.00 0.03 0.00 81 1014.4
20260504044215 10 196 1.6 3.2 0.00 0.00 0.00 81 1014.5
20260504043221 10 189 1.6 4.8 0.00 0.00 0.00 80 1014.5
20260504043037 9 188 0.0 3.2 0.00 0.03 0.00 80 1014.4
20260504041547 9 228 1.6 6.4 0.00 0.03 0.00 80 1014.4
20260504040211 9 221 3.2 4.8 0.00 0.03 0.00 81 1014.5
20260504040116 9 208 1.6 4.8 0.00 0.03 0.00 81 1014.5
20260504035222 9 213 1.6 3.2 0.00 0.03 0.00 81 1014.6
20260504034611 9 231 0.0 3.2 0.00 0.03 0.00 80 1014.5
20260504034233 10 222 0.0 3.2 0.00 0.03 0.00 80 1014.6
20260504033208 10 225 1.6 3.2 0.00 0.03 0.00 80 1014.7
20260504033041 9 225 0.0 3.2 0.00 0.03 0.00 80 1014.6
20260504032222 10 225 1.6 3.2 0.00 0.03 0.00 80 1014.7
20260504031531 10 237 0.0 3.2 0.00 0.03 0.00 80 1014.5
20260504031215 10 238 1.6 3.2 0.00 0.03 0.00 79 1014.7
20260504030224 10 206 1.6 3.2 0.00 0.03 0.00 79 1014.7
20260504030027 10 207 0.0 3.2 0.00 0.03 0.00 79 1014.6
20260504025212 10 179 1.6 3.2 0.00 0.03 0.00 78 1014.8
20260504024601 10 198 0.0 3.2 0.00 0.03 0.00 77 1014.6
20260504024213 10 217 1.6 4.8 0.00 0.03 0.00 77 1014.6
20260504023225 11 202 0.0 4.8 0.00 0.03 0.00 75 1014.6
20260504023049 10 196 0.0 4.8 0.00 0.03 0.00 75 1014.5
20260504022225 11 220 1.6 4.8 0.00 0.03 0.00 75 1014.6
20260504021559 11 251 0.0 4.8 0.00 0.03 0.00 75 1014.5
20260504020229 11 89 1.6 3.2 0.00 0.03 0.00 74 1014.6
20260504020015 11 51 1.6 4.8 0.00 0.03 0.00 74 1014.5
20260504015219 11 235 1.6 4.8 0.00 0.03 0.00 74 1014.6
20260504014513 11 246 1.6 4.8 0.00 0.03 0.00 75 1014.5
20260504014217 11 220 1.6 4.8 0.00 0.03 0.00 75 1014.7
20260504013224 11 213 1.6 1.6 0.00 0.03 0.00 75 1014.7
20260504013016 10 222 0.0 1.6 0.00 0.03 0.00 75 1014.6
20260504012222 11 196 1.6 3.2 0.00 0.03 0.00 75 1014.8
20260504011507 11 229 0.0 3.2 0.00 0.03 0.00 75 1014.6
20260504011228 11 238 1.6 3.2 0.00 0.03 0.00 74 1014.8
20260504010218 11 234 1.6 3.2 0.00 0.03 0.00 73 1014.7
20260504010013 11 238 0.0 3.2 0.00 0.03 0.00 73 1014.6
20260504004517 11 224 1.6 4.8 0.00 0.03 0.00 72 1014.6
20260504004232 12 290 1.6 4.8 0.00 0.03 0.00 71 1014.6
20260504003220 11 228 1.6 4.8 0.00 0.03 0.00 72 1014.7
20260504003055 11 221 1.6 4.8 0.00 0.03 0.00 72 1014.6
20260504002220 11 224 1.6 4.8 0.00 0.03 0.00 73 1014.8
20260504001603 11 217 0.0 1.6 0.00 0.03 0.00 74 1014.6
20260504001210 11 217 0.0 1.6 0.00 0.03 0.00 74 1014.7
20260504000010 11 217 0.0 1.6 0.00 0.03 0.00 74 1014.6
20260503235227 12 217 0.0 1.6 0.00 0.03 0.00 74 1014.7
20260503234531 12 217 0.0 1.6 0.00 0.03 0.00 74 1014.5
20260503234218 12 217 0.0 1.6 0.00 0.03 0.00 74 1014.7
20260503233218 13 217 0.0 1.6 0.00 0.03 0.00 73 1014.7
20260503233106 12 217 0.0 1.6 0.00 0.03 0.00 73 1014.5
20260503232217 13 217 0.0 3.2 0.00 0.03 0.00 71 1014.7
20260503231607 13 217 0.0 3.2 0.00 0.03 0.00 71 1014.6
20260503231225 13 210 0.0 3.2 0.00 0.03 0.00 69 1014.7
20260503230226 14 180 1.6 4.8 0.00 0.03 0.00 67 1014.7
20260503230045 14 190 0.0 3.2 0.00 0.03 0.00 66 1014.6
20260503225217 15 159 1.6 4.8 0.00 0.03 0.00 64 1014.7
20260503224559 15 231 0.0 3.2 0.00 0.03 0.00 63 1014.5
20260503224223 15 231 1.6 4.8 0.00 0.03 0.00 62 1014.6
20260503223218 16 84 1.6 6.4 0.00 0.03 0.00 59 1014.6
20260503223050 15 92 1.6 4.8 0.00 0.03 0.00 58 1014.5
20260503222213 16 182 1.6 6.4 0.00 0.03 0.00 57 1014.7
20260503221603 16 112 1.6 4.8 0.00 0.03 0.00 53 1014.5
20260503220226 16 247 3.2 12.9 0.00 0.03 0.03 52 1014.6
20260503220052 16 227 1.6 11.3 0.00 0.03 0.00 52 1014.4
20260503215232 16 248 4.8 11.3 0.00 0.03 0.03 53 1014.5
20260503214522 16 227 1.6 9.7 0.00 0.03 0.03 53 1014.4
20260503214213 16 163 4.8 11.3 0.00 0.03 0.03 52 1014.5
20260503213226 16 214 4.8 16.1 0.00 0.03 0.03 52 1014.4
20260503213042 16 212 4.8 14.5 0.00 0.03 0.03 53 1014.3
20260503212220 16 222 4.8 12.9 0.00 0.03 0.03 53 1014.4
20260503211534 16 201 3.2 12.9 0.00 0.03 0.03 54 1014.2
20260503211221 16 201 4.8 12.9 0.00 0.03 0.03 54 1014.4
20260503210108 16 237 1.6 11.3 0.00 0.03 0.03 54 1014.3
20260503205213 16 212 3.2 6.4 0.00 0.03 0.03 54 1014.4
20260503204554 16 219 3.2 12.9 0.00 0.03 0.03 53 1014.3
20260503204221 16 265 3.2 6.4 0.00 0.03 0.03 54 1014.4
20260503203219 16 225 4.8 9.7 0.00 0.03 0.03 54 1014.5
20260503203007 16 229 3.2 8.0 0.00 0.03 0.03 54 1014.4
20260503202215 16 187 1.6 6.4 0.00 0.03 0.03 56 1014.5
20260503201514 16 243 0.0 4.8 0.00 0.03 0.03 56 1014.3
20260503200214 16 217 1.6 6.4 0.00 0.03 0.03 56 1014.5
20260503200111 16 243 0.0 4.8 0.00 0.03 0.03 56 1014.4
20260503194519 16 144 1.6 8.0 0.00 0.03 0.03 54 1014.4
20260503194226 16 149 3.2 9.7 0.00 0.03 0.03 53 1014.5
20260503193217 17 242 3.2 8.0 0.00 0.03 0.03 52 1014.4
20260503193037 17 193 1.6 8.0 0.00 0.03 0.03 51 1014.2
20260503192222 17 217 3.2 16.1 0.00 0.03 0.03 50 1014.4
20260503191509 17 254 3.2 14.5 0.00 0.03 0.03 51 1014.0
20260503190239 17 301 4.8 12.9 0.00 0.03 0.03 50 1014.5
20260503190042 17 244 6.4 9.7 0.00 0.03 0.03 50 1014.3
20260503185231 17 44 4.8 17.7 0.00 0.03 0.03 49 1014.5
20260503184510 17 211 4.8 16.1 0.00 0.03 0.03 48 1014.4
20260503183208 17 234 6.4 16.1 0.00 0.03 0.03 47 1014.5
20260503183037 17 188 4.8 16.1 0.00 0.03 0.03 47 1014.3
20260503182217 18 256 8.0 20.9 0.00 0.03 0.03 46 1014.5
20260503181601 17 221 6.4 16.1 0.00 0.03 0.03 45 1014.2
20260503181226 18 186 8.0 24.1 0.00 0.03 0.03 45 1014.4
20260503180230 18 236 9.7 24.1 0.00 0.03 0.03 43 1014.2
20260503180052 18 261 11.3 27.4 0.00 0.03 0.03 43 1014.1
20260503174555 18 178 9.7 25.7 0.00 0.03 0.03 40 1014.1
20260503174224 18 211 8.0 19.3 0.00 0.03 0.03 40 1014.2
20260503173051 18 244 4.8 17.7 0.00 0.03 0.03 39 1014.0
20260503172224 19 224 9.7 22.5 0.00 0.03 0.03 39 1014.3
20260503171540 18 196 8.0 20.9 0.00 0.03 0.03 39 1014.0
20260503170232 19 195 9.7 30.6 0.00 0.03 0.03 39 1014.1
20260503150221 23 230 3.2 9.7 0.00 0.03 0.03 39 1013.1